Regional Weather Roundup
Issued by NWS Sioux Falls, SD

Home | Current Version | Previous Version | Text Only | Print | Product List | Glossary On
Versions: 1 2 3 4 5 6 7 8 9 10 11 12 13 14 15 16 17 18 19 20 21 22 23 24 25 26 27 28 29 30 31 32 33 34 35 36 37 38 39 40 41 42 43 44 45 46 47 48 49 50
000
ASUS43 KFSD 190010
RWRFSD

WEATHER ROUNDUP FOR SE SOUTH DAKOTA/SW MINNESOTA/NW IOWA
NATIONAL WEATHER SERVICE SIOUX FALLS SD
700 PM CDT FRI APR 18 2014

NOTE: "FAIR" INDICATES FEW OR NO CLOUDS BELOW 12,000 FEET WITH NO
SIGNIFICANT WEATHER AND OR OBSTRUCTIONS TO VISIBILITY.


SDZ038>040-050-052>070-190100-
SOUTHEAST SOUTH DAKOTA

CITY           SKY/WX    TMP DP  RH WIND       PRES   REMARKS
CHAMBERLAIN      N/A     70  41  34 S28G39    29.75F
6HR MIN TEMP:  68; 6HR MAX TEMP:  78;

HURON          CLOUDY    68  39  34 S17G35    29.80F
6HR MIN TEMP:  62; 6HR MAX TEMP:  72;

MADISON        FAIR      61  36  39 S26G37    29.93F
MITCHELL       CLOUDY    68  41  37 S26G38    29.86F
6HR MIN TEMP:  66; 6HR MAX TEMP:  72;

SIOUX FALLS    CLOUDY    63  36  36 S24G32    29.97F
6HR MIN TEMP:  59; 6HR MAX TEMP:  66;

WINNER         FAIR      72  41  32 S26G36    29.74F
YANKTON        CLOUDY    66  39  37 S18G33    29.95F
$$

MNZ071-072-080-081-089-090-097-098-190100-
SOUTHWEST MINNESOTA

CITY           SKY/WX    TMP DP  RH WIND       PRES   REMARKS
FAIRMONT       SUNNY     57  30  35 SE18G30   30.15F
JACKSON        SUNNY     59  28  31 SE20G28   30.10F
LUVERNE        MOSUNNY   63  34  34 S20G28    30.02S
MARSHALL       MOSUNNY   61  36  39 SE18G28   30.03S
6HR MIN TEMP:  48; 6HR MAX TEMP:  63;

MONTEVIDEO     SUNNY     50  39  66 SE21G26   30.06F
PIPESTONE      MOSUNNY   61  36  39 S20G25    29.99F
REDWOOD FALLS  SUNNY     56  36  47 SE24G33   30.08F
TRACY          SUNNY     58  36  42 SE20G25   30.04F
WINDOM         SUNNY     59  30  33 SE22      30.08F
WORTHINGTON    SUNNY     59  30  33 SE21G30   30.07F
$$

IAZ001>003-012>014-020>022-031-032-NEZ013-014-SDZ071-190100-
NORTHWEST IOWA

CITY           SKY/WX    TMP DP  RH WIND       PRES   REMARKS
CHEROKEE       SUNNY     63  32  31 S18G26    30.07F
DENISON        SUNNY     64  32  29 S20       30.08F
ESTHERVILLE    SUNNY     58  32  37 SE24G31   30.11F
LE MARS        MOSUNNY   64  37  36 S23G32    30.03F
ORANGE CITY    MOSUNNY   64  34  32 S17G25    30.03F
SHELDON        SUNNY     61  36  39 S20G26    30.04S
SIOUX CITY     MOSUNNY   67  37  33 S20G32    30.04F
6HR MIN TEMP:  62; 6HR MAX TEMP:  70;

SPENCER        SUNNY     61  31  32 SE23G35   30.08F
6HR MIN TEMP:  56; 6HR MAX TEMP:  65;

STORM LAKE     SUNNY     61  30  31 S22G30    30.09F
$$

ABBREVIATIONS USED IN REMARKS
   TC - TEMPERATURE IN CELSIUS
  WCI - WIND CHILL INDEX
   HX - HEAT INDEX
  VSB - VISIBILITY




USA.gov is the U.S. government's official web portal to all federal, state and local government web resources and services.